RH
10 10 11 12 13 14 20 25 32 35 37 40 39 50 63 60 53 62 59 53 50 53 51 46 41 40 38 37 35 34 34 32 29 27 26 26 25 25 24 25 24 27 27 27 27 26 25 23 23
11 12 12 13 15 21 26 23 34 36 40 37 35 39 43 49 49 50 49 47 45 47 44 41 39 38 38 36 35 35 35 34 35 34 31 29 30 30 30 30 27 28 28 29 32 34 31 28 27
12 13 14 15 20 30 31 34 36 35 35 32 33 33 38 44 40 44 46 43 45 42 39 38 36 36 35 36 36 36 36 36 37 37 37 37 37 34 37 37 35 31 31 32 33 34 37 33 30
12 13 14 17 26 27 37 36 34 35 34 30 29 32 38 41 43 43 43 42 40 38 36 36 35 35 36 37 37 37 36 36 37 37 39 40 40 39 38 37 37 36 36 33 31 30 32 34 33
13 15 18 22 28 31 35 33 33 34 35 31 24 34 40 46 44 43 41 40 38 36 36 35 34 35 36 36 36 36 38 39 40 41 42 43 42 42 41 40 40 40 39 40 41 38 36 35 35
14 17 21 30 30 29 31 30 29 32 33 33 30 31 41 43 41 40 38 36 36 35 36 35 34 35 36 37 37 38 38 38 38 40 41 42 44 44 45 45 46 46 47 46 46 47 47 46 45
15 19 24 26 28 31 29 29 31 29 27 29 25 33 39 41 41 40 38 38 36 36 36 35 35 35 36 36 35 32 31 31 33 35 37 39 40 40 43 44 46 48 50 50 49 48 47 47 48
18 19 22 26 32 34 30 30 30 30 26 27 27 32 37 39 39 39 40 39 39 40 39 38 34 33 32 31 28 24 22 23 26 29 31 31 32 34 35 35 37 41 44 46 48 49 48 48 48
22 21 22 32 32 31 30 25 25 26 24 27 27 28 31 36 38 38 37 38 39 38 37 34 32 28 26 24 21 21 20 20 20 20 20 19 18 17 16 18 21 22 22 24 26 32 37 42 45
21 24 27 30 29 31 31 26 27 28 31 31 31 31 35 36 36 35 35 36 35 34 33 32 29 25 22 21 19 19 19 19 20 21 21 19 18 17 16 15 16 15 16 17 17 15 15 18 21
19 19 28 30 31 31 31 28 27 30 30 27 30 31 31 33 34 33 34 34 34 32 31 29 26 22 20 19 19 20 20 21 22 21 19 17 16 16 15 14 14 13 13 13 12 12 12 12 13
21 18 26 27 30 30 30 28 29 27 22 23 27 28 30 32 32 32 33 33 33 31 30 26 23 22 21 20 19 19 20 22 22 20 18 17 16 15 14 14 13 13 13 13 13 13 13 13 12
23 21 21 24 26 31 29 31 32 31 27 24 29 32 33 31 32 32 32 32 32 31 28 24 22 21 20 19 19 20 22 23 22 19 17 16 16 15 14 14 14 14 14 14 14 15 15 15 14
24 25 22 23 22 21 31 35 30 35 28 27 29 32 32 31 31 32 32 32 32 30 27 24 22 21 20 20 20 21 23 23 20 19 17 17 16 15 15 15 15 15 15 15 15 15 14 13 13
26 26 23 22 21 20 18 22 28 28 26 27 30 30 30 30 31 32 32 31 29 29 27 24 21 21 21 21 22 23 24 22 21 20 19 18 17 17 17 17 16 16 16 16 15 14 13 12 12
33 29 28 21 22 21 21 19 24 26 25 27 30 30 31 31 32 32 31 31 30 30 28 24 22 22 22 22 23 24 24 24 22 21 20 20 19 18 17 17 17 17 15 14 13 12 11 11 11
41 41 36 28 24 24 26 25 26 33 30 30 33 33 34 34 33 32 32 32 30 32 28 25 23 23 23 24 24 26 26 24 22 21 21 21 20 19 19 18 17 15 13 12 11 11 11 11 10
45 46 44 43 39 40 40 36 33 37 39 34 35 36 36 35 34 33 33 32 32 33 28 25 24 25 25 25 27 28 27 24 23 23 23 22 21 20 19 17 15 13 12 12 12 11 10 10 9
43 44 45 42 41 46 44 44 42 39 39 37 36 36 36 36 34 32 31 32 36 33 29 25 25 26 27 28 27 28 26 25 26 25 23 22 22 20 18 16 14 14 14 13 11 11 9 8 8
42 42 42 42 44 48 44 44 45 41 40 37 33 33 34 33 33 34 36 38 35 32 28 26 26 27 29 29 29 28 26 27 28 26 24 24 23 22 20 17 17 16 15 13 12 11 10 11 13
44 43 41 41 40 47 47 46 41 41 42 42 37 35 35 33 36 36 35 34 33 31 28 29 29 28 29 30 30 28 30 31 30 27 26 26 25 25 22 21 18 17 16 15 14 12 15 19 19
49 47 44 41 39 41 48 48 45 44 43 41 39 36 34 34 32 31 32 32 32 33 32 32 30 30 30 30 30 30 31 32 30 30 30 28 27 24 23 21 19 18 17 15 14 15 18 21 21
46 48 49 45 40 38 39 48 39 37 37 36 35 38 36 35 33 32 32 34 37 36 34 34 34 33 31 31 33 34 35 35 34 32 30 27 26 26 24 22 21 20 18 20 21 23 24 25 25
49 50 47 46 46 45 41 41 33 39 34 32 34 37 37 36 35 37 38 39 40 41 39 38 35 33 35 36 37 38 39 38 34 32 30 29 28 27 25 23 22 20 19 22 24 26 25 26 25
48 51 58 57 55 47 37 42 31 33 33 34 36 40 41 39 41 42 42 43 45 45 41 36 36 39 39 41 42 43 42 40 36 34 34 33 31 29 26 24 22 22 21 24 24 26 26 25 25
43 54 66 65 60 46 37 40 33 33 33 32 34 39 44 43 43 44 45 45 46 45 43 40 42 45 44 46 47 47 46 43 38 37 37 37 34 30 28 25 24 23 23 24 24 24 25 25 26
48 45 46 55 50 59 50 45 40 38 38 37 39 44 45 44 46 48 46 44 45 46 47 47 47 50 52 51 50 50 49 45 42 42 43 42 36 32 29 27 24 23 23 21 21 22 22 22 21
48 42 53 57 63 65 44 47 45 39 43 44 46 48 51 51 51 50 48 45 46 47 52 54 52 58 56 53 53 53 52 50 48 49 48 44 36 32 30 26 24 23 19 20 22 20 20 19 17
49 52 55 55 58 60 60 49 36 34 35 39 47 50 51 53 52 49 48 49 50 51 55 58 61 58 57 56 58 57 55 56 55 55 50 43 37 33 28 25 22 20 16 16 20 18 17 17 15
55 58 58 69 64 74 65 46 42 40 41 42 45 47 50 51 53 54 54 52 53 55 54 60 65 62 64 60 60 62 63 60 60 56 52 44 38 33 28 25 22 21 18 16 18 17 18 18 13